カタログに戻る

COSMOS 249 DEB *

運用中LEO
NORAD 6176·DEBRIS·🇷🇺 Russia

打ち上げ Oct 20, 1968 から Baikonur Cosmodrome

Loading…

次のパス (今後24時間)

TLE

最新Source: Space-Track

元期: Sep 14, 2026, 08:26 UTC

1 06176U 68091CG  26257.35191359 -.00000003  00000-0  11387-3 0  9999
2 06176  65.7283  30.1855 0465083   1.8505 358.4109 13.08546497170858

AllMySatでCOSMOS 249 DEB *をリアルタイム追跡

Download on the App Store